Last 30 Days

Upper Lake

Daily Data | America/Los_Angeles
as of 9/2/26 4:08 AM PDT
Date Daily Max Temp (°F) Time of Max Temp Daily Min Temp (°F) Time of Min Temp Daily Rain (In) Month Precip (In) Season Precip (In) Wind Spd (mph) Daily Max Wind (mph) Time of Max Wind Max Wind Dir (°) Dew Pt (°F) Daily Max RH (%) Daily Min RH (%) Hrs <= 32F (hrs) Hrs <= 28F (hrs) Daily Leaf Wet (Hrs) Degree Hrs (hrs) Hrs 70-85F (hrs) Hrs > 95F (hrs) Powdery Mildew Stress (pts) Daily Max Rain Intensity (In/Hr) Time of Max Rain Intensity Max 1 Min Rain (In) Max 1 Min Rain Time Max 15 Min Rain (In) Max 15 Min Precip Time Max 60 Min Rain (In) Max 60 Min Rain Time MinBV Day (V)
9/1/26 69.5 1426 49.2 0048 0.01 0.01 0.04 2.7 18.8 1518 N | 351 50.9 97 48 0.0 0.0 0.0 12.0 0.00 0.00 10 0.01 2126 0.01 2127 0.01 2141 0.01 2226 12.5
8/31/26 86.7 1439 45.4 0641 0.00 0.00 0.03 2.9 18.0 1913 WSW | 252 49.0 92 27 0.0 0.0 0.0 140.6 9.07 0.00 20 - - - - - - - - 12.5
8/30/26 91.3 1658 44.8 0636 0.00 0.00 0.03 1.7 13.6 1943 W | 278 46.9 95 17 0.0 0.0 0.0 200.8 3.73 0.00 0 - - - - - - - - 12.5
8/29/26 88.5 1413 41.1 0558 0.00 0.00 0.03 2.2 17.3 1819 WSW | 258 45.6 93 23 0.0 0.0 0.0 162.9 4.83 0.00 10 - - - - - - - - 12.5
8/28/26 84.9 1515 47.3 0101 0.00 0.00 0.03 1.5 11.2 1804 WSW | 255 44.4 82 15 0.0 0.0 0.0 156.4 10.71 0.00 20 - - - - - - - - 12.5
8/27/26 95.7 1549 51.8 0659 0.00 0.00 0.03 2.7 18.7 1635 N | 353 49.5 93 17 0.0 0.0 0.0 289.3 4.95 0.16 0 - - - - - - - - 12.5
8/26/26 94.9 1449 43.0 0601 0.00 0.00 0.03 2.1 16.2 1737 W | 272 46.4 91 13 0.0 0.0 0.0 248.5 3.84 0.00 0 - - - - - - - - 12.5
8/25/26 91.1 1504 47.8 0634 0.00 0.00 0.03 1.9 15.0 1820 WNW | 289 46.0 92 16 0.0 0.0 0.0 231.0 3.26 0.00 0 - - - - - - - - 12.5
8/24/26 92.8 1637 47.8 0659 0.00 0.00 0.03 2.0 15.6 1928 WSW | 247 48.1 94 13 0.0 0.0 0.0 243.1 2.62 0.00 0 - - - - - - - - 12.5
8/23/26 94.7 1531 46.7 0707 0.00 0.00 0.03 1.7 14.4 1806 NNW | 348 48.8 97 13 0.0 0.0 0.0 261.5 2.94 0.00 0 - - - - - - - - 12.5
8/22/26 91.4 1535 44.2 0631 0.00 0.00 0.03 2.4 16.3 1329 W | 270 46.6 93 18 0.0 0.0 0.0 223.1 4.12 0.00 0 - - - - - - - - 12.5
8/21/26 90.9 1637 52.2 0048 0.00 0.00 0.03 1.9 15.7 1655 N | 354 50.4 90 12 0.0 0.0 0.0 216.8 4.08 0.00 0 - - - - - - - - 12.5
8/20/26 94.2 1613 51.6 0544 0.00 0.00 0.03 2.0 11.8 1838 W | 280 50.3 86 14 0.0 0.0 0.0 276.3 3.19 0.00 10 - - - - - - - - 12.5
8/19/26 96.5 1748 54.2 0618 0.00 0.00 0.03 1.9 13.0 1736 S | 182 52.3 87 22 0.0 0.0 0.0 314.8 2.40 3.04 20 - - - - - - - - 12.5
8/18/26 97.0 1714 53.5 0538 0.00 0.00 0.03 2.2 14.2 1802 N | 353 52.1 88 22 0.0 0.0 0.0 291.1 2.25 1.03 30 - - - - - - - - 12.5
8/17/26 91.3 1628 58.1 0413 0.00 0.00 0.03 2.1 12.9 1958 W | 277 52.4 85 22 0.0 0.0 0.0 254.4 2.94 0.00 40 - - - - - - - - 12.5
8/16/26 90.6 1546 48.7 0639 0.00 0.00 0.03 1.8 12.7 1307 S | 179 52.9 97 22 0.0 0.0 0.0 238.2 3.85 0.00 50 - - - - - - - - 12.5
8/15/26 85.4 1516 48.0 0623 0.00 0.00 0.03 1.9 14.5 1811 WNW | 297 52.8 98 25 0.0 0.0 0.0 168.7 11.55 0.00 60 - - - - - - - - 12.5
8/14/26 82.6 1717 51.3 0621 0.00 0.00 0.03 2.4 15.7 1804 NNW | 346 54.8 97 34 0.0 0.0 1.0 129.1 9.82 0.00 40 - - - - - - - - 12.5
8/13/26 84.5 1522 52.9 0649 0.00 0.00 0.03 2.3 15.4 1558 SE | 146 55.8 94 40 0.0 0.0 0.0 166.2 11.68 0.00 20 - - - - - - - - 12.5
8/12/26 93.4 1628 53.1 0626 0.00 0.00 0.03 1.9 13.3 1705 WSW | 250 55.0 93 21 0.0 0.0 0.0 266.1 3.63 0.00 0 - - - - - - - - 12.5
8/11/26 95.0 1750 52.4 0644 0.00 0.00 0.03 2.1 15.0 1833 W | 268 55.1 93 25 0.0 0.0 0.0 290.0 3.01 0.00 0 - - - - - - - - 12.5
8/10/26 98.7 1420 51.6 0632 0.00 0.00 0.03 1.7 13.0 1558 SSE | 161 53.6 89 17 0.0 0.0 0.0 324.7 1.91 2.95 0 - - - - - - - - 12.5
8/9/26 105.2 1537 51.9 0630 0.00 0.00 0.03 1.9 16.0 1616 NNW | 333 49.4 88 11 0.0 0.0 0.0 371.8 1.79 6.95 0 - - - - - - - - 12.5
8/8/26 108.1 1541 55.3 0615 0.00 0.00 0.03 1.8 14.2 1626 WSW | 246 49.5 82 8 0.0 0.0 0.0 425.4 2.10 7.98 0 - - - - - - - - 12.5
8/7/26 103.3 1715 52.6 0548 0.00 0.00 0.03 1.9 14.5 1845 WNW | 292 49.2 86 13 0.0 0.0 0.0 383.2 2.06 6.69 0 - - - - - - - - 12.5
8/6/26 100.0 1622 52.5 0624 0.00 0.00 0.03 2.0 13.2 1944 W | 275 52.4 95 12 0.0 0.0 0.0 333.8 2.23 5.50 0 - - - - - - - - 12.5
8/5/26 99.1 1524 54.8 0651 0.00 0.00 0.03 1.9 11.4 1418 S | 169 55.1 89 18 0.0 0.0 0.0 346.8 2.28 4.64 0 - - - - - - - - 12.5
8/4/26 102.2 1720 54.0 0611 0.00 0.00 0.03 1.8 15.1 1730 W | 276 54.0 92 15 0.0 0.0 0.0 385.3 2.69 6.49 0 - - - - - - - - 12.5
8/3/26 102.9 1725 54.0 0628 0.00 0.00 0.03 1.9 16.9 1740 NW | 314 53.5 92 14 0.0 0.0 0.0 368.2 2.17 6.11 0 - - - - - - - - 12.5
Max 108.1 - 58.1 - 0.01 0.01 0.04 2.9 18.8 - - 55.8 98 48 0.0 0.0 1.0 425.4 11.68 7.98 - - - - - - - - - 12.5
Avg - - - - - - - 2.0 - - - 50.8 - - 0.0 0.0 - - 4.19 1.72 - - - - - - - - - -
Min 69.5 - 41.1 - 0.00 0.00 0.03 1.5 11.2 - - 44.4 82 8 0.0 0.0 0.0 12.0 0.00 0.00 - - - - - - - - - 12.5
Total - - - - - - - - - - - - - - 0.0 0.0 - - 125.71 51.54 - - - - - - - - - -